Regional Weather Roundup
Issued by NWS

Home | Current Version | Previous Version | Graphics & Text | Print | Product List | Glossary On
Versions: 1 2 3 4 5 6 7 8 9 10 11 12 13 14 15 16 17 18 19 20 21 22 23 24 25 26 27 28 29 30 31 32 33 34 35 36 37 38 39 40 41 42 43 44 45 46 47 48 49 50
000
ASUS45 KSLC 231610
RWRUT

UTAH REGIONAL WEATHER ROUNDUP
NATIONAL WEATHER SERVICE SALT LAKE CITY UT
1000 AM MDT MON OCT 23 2017

UTZ001>011-023>025-231700-

NORTHERN UTAH

CITY           SKY/WX    TMP DP  RH WIND       PRES   REMARKS
BRIGHAM CITY   SUNNY     56  31  38 N7        30.59R
HILL AFB       SUNNY     53  36  53 CALM      30.58R
LOGAN          SUNNY     53  37  54 NW8       30.58R
OGDEN          SUNNY     54  38  54 VRB3      30.58R
SALT LAKE CITY PTSUNNY   57  41  55 NW6       30.58R
TOOELE VALLEY  MOSUNNY   52  39  62 CALM      30.60R
WENDOVER       MOSUNNY   54  40  59 VRB6      30.60R
HEBER CITY       N/A     54  34  47 CALM      30.56
WEST JORDAN    PTSUNNY   55  40  58 NW13G22   30.59R

$$

UTZ011>015-024>027-231700-

CENTRAL/NORTHEAST UTAH

CITY           SKY/WX    TMP DP  RH WIND       PRES   REMARKS
PROVO AIRPORT  PTSUNNY   53  41  63 N15       30.59R
MOAB/CANYONLAN MOSUNNY   52  21  29 NW7       30.49R
DELTA          SUNNY     52  30  43 NW5       30.59R
PRICE          MOSUNNY   55  32  41 NW15G24   30.53S
ROOSEVELT      SUNNY     50  28  43 CALM      30.51R
VERNAL         SUNNY     54  25  32 E3        30.49R

$$

UTZ013>016-019>022-027-231700-

SOUTHERN UTAH

CITY           SKY/WX    TMP DP  RH WIND       PRES   REMARKS
BRYCE CANYON   SUNNY     56  24  29 N13       30.60R
CEDAR CITY     SUNNY     50  23  34 CALM      30.55R
MILFORD        SUNNY     50  22  33 N8        30.58R
ST GEORGE      SUNNY     56  26  31 S3        30.43R
HANKSVILLE     MOSUNNY   46  19  34 CALM      30.53R
BLANDING         N/A     59  20  22 SE3       30.54S

$$

REGIONAL REPORTS     COLORADO/ARIZONA

CITY           SKY/WX    TMP DP  RH WIND       PRES   REMARKS
CRAIG, CO      SUNNY     53  31  42 W8        30.52R
GRAND JUNCTION SUNNY     48  29  47 W6        30.50R
RIFLE, CO      SUNNY     45  32  60 CALM      30.53S
MONTROSE, CO   SUNNY     50  26  39 CALM      30.53S
CORTEZ, CO     SUNNY     54  25  32 CALM      30.46S
COLORADO CITY    N/A     55  28  35 CALM      30.50R
PAGE, AZ       MOSUNNY   58  24  27 CALM      30.46R
GRAND CANYON   SUNNY     59  20  22 CALM      30.53R
KINGMAN, AZ    SUNNY     68  25  19 NE6       30.35R
FLAGSTAFF, AZ  SUNNY     55  20  25 NE6       30.53R

$$

REGIONAL REPORTS    NEVADA/IDAHO/WYOMING

CITY           SKY/WX    TMP DP  RH WIND       PRES   REMARKS
LAS VEGAS, NV  SUNNY     69  28  21 W3        30.33R
ELY, NY        SUNNY     47  25  42 CALM      30.61R
ELKO, NV       SUNNY     44  32  62 CALM      30.63R
POCATELLO, ID  CLOUDY    46  40  79 SW16      30.60R
BURLEY, ID     MOSUNNY   49  44  83 W7        30.60R
FORT BRIDGER,    N/A     48  30  49 W25G33    30.57R
EVANSTON, WY   SUNNY     46  31  55 W23       30.57R
ROCK SPRINGS,  SUNNY     46  28  49 W26G33    30.52R
KEMMERER, WY   SUNNY     43  30  61 W15G25    30.56R

$$



USA.gov is the U.S. government's official web portal to all federal, state and local government web resources and services.